TOURFACTS.DK  
Stats and Facts from Tour de France.

Tour de France 2019 starts in 354 days
  Riders   Stages   Teams   Summits   Yearly  


 
Search by year

After 2018 - Stage 9:
 15000 starters.
  5163 different riders.
  639 teams.
  2241 stages.
  456 restdays.
  441138.60 km.
  5662 abandonnees.


Top 3
GC
Christopher Froome86:20:55
Rigoberto Urán86:21:49
Romain Bardet86:23:15
Climb
Warren Barguil169 pt.
Primoz Roglic80 pt.
Thomas De Gendt64 pt.
Sprint
Michael Matthews359 pt.
André Greipel234 pt.
Edvald Boasson Hagen220 pt.
Youth
Simon Yates86:27:09
Louis Meintjes86:29:15
Emanuel Buchmann86:54:16
Facts from Tour de France 1964
  |   Stages.  |   Stage winners.  |   Days in yellow  |   Average speed.  |   Route.  |   Teams.  |   All riders.  |   Rookies.  |  

  |   Withdrawls.  |   GC.  |   Polka  |   Green  |   White  |   Summits. (In tour)  |   Miscellaneous.  |  

Stage 12 on July 3rd. 1964
         Owning:    Joseph Groussard    
Pick a stage:  1 2 3a 3b 4 5 6 7 8 9 10a 10b 11 12 13 14 15 16 17 18 19 20 21 22a 22b
  MontpellierPerpignan | Dist: 174.00 km.

Average speed for all riders in stage:  36,661 km./hr.
    Place:Name:Team:Time:Km/h:
NEDJo De RooFRASaint Raphael-Gitane-Campagnol..04:44:20  +  00:00:00=36,717 
FRAGuy EpaudFRAPelforth-Sauvage-Lejeune-Wolbe..04:44:21  +  00:00:01=36,715 
NEDHenk NijdamNLDTelevisier04:44:23  +  00:00:03=36,711 
4 ITAMario MinieriITASalvarani04:44:23  +  00:00:03=36,711 
5 ENGBarry HobanFRAMercier-BP-Hutchinson04:44:26  +  00:00:06=36,705 
6 ITARomano PiancastelliITASalvarani04:44:26  +  00:00:06=36,705 
7 BELEdward SelsBELSolo-Superia04:44:26  +  00:00:06=36,705 
8 BELArthur DecabooterBELSolo-Superia04:44:26  +  00:00:06=36,705 
9 ESPJosé SeguFRAMargnat-Paloma-Dunlop04:44:26  +  00:00:06=36,705 
10 ENGMichael WrightBELWiel´s-Groene Leeuw04:44:26  +  00:00:06=36,705 
11 BELBenoni BeheytBELWiel´s-Groene Leeuw04:44:26  +  00:00:06=36,705 
12 ITABruno FantinatoITASalvarani04:44:26  +  00:00:06=36,705 
13 BELFrans AerenhoutsFRAMercier-BP-Hutchinson04:44:26  +  00:00:06=36,705 
14 FRAJean-Pierre GenetFRAMercier-BP-Hutchinson04:44:26  +  00:00:06=36,705 
15 ITABattista BabiniITASalvarani04:44:26  +  00:00:06=36,705 
16 ITAItalo MazzacuratiITASalvarani04:44:26  +  00:00:06=36,705 
17 GERRudi AltigFRASaint Raphael-Gitane-Campagnol..04:44:26  +  00:00:06=36,705 
18 NEDJo de HaanNLDTelevisier04:44:26  +  00:00:06=36,705 
19 NEDCees HaastNLDTelevisier04:44:26  +  00:00:06=36,705 
20 BELVictor Van SchilFRAMercier-BP-Hutchinson04:44:26  +  00:00:06=36,705 
21 NEDJan JanssenFRAPelforth-Sauvage-Lejeune-Wolbe..04:44:33  +  00:00:13=36,690 
22 ESPAntonio BarrutiaESPKas-Kaskol04:44:33  +  00:00:13=36,690 
23 IRLSeamus ElliottFRASaint Raphael-Gitane-Campagnol..04:44:33  +  00:00:13=36,690 
24 ENGVic DensonBELSolo-Superia04:44:33  +  00:00:13=36,690 
25 ESPAntonio BertranESPFerrys04:44:33  +  00:00:13=36,690 
26 BELRik WoutersNLDTelevisier04:44:33  +  00:00:13=36,690 
27 FRAJacques AnquetilFRASaint Raphael-Gitane-Campagnol..04:44:33  +  00:00:13=36,690 
28 BELMichel Van AerdeBELSolo-Superia04:44:33  +  00:00:13=36,690 
29 BELWilly MontyFRAPelforth-Sauvage-Lejeune-Wolbe..04:44:33  +  00:00:13=36,690 
30 FRAJoseph GroussardFRAPelforth-Sauvage-Lejeune-Wolbe..04:44:33  +  00:00:13=36,690 
31 BELJean-Baptiste ClaesBELWiel´s-Groene Leeuw04:44:33  +  00:00:13=36,690 
32 ENGTom SimpsonFRAPeugeot-BP-Englebert04:44:33  +  00:00:13=36,690 
33 FRAAnatole NovakFRASaint Raphael-Gitane-Campagnol..04:44:33  +  00:00:13=36,690 
34 BELWilly DerbovenBELSolo-Superia04:44:33  +  00:00:13=36,690 
35 FRARobert CazalaFRAMercier-BP-Hutchinson04:44:33  +  00:00:13=36,690 
36 BELFerdinand BrackeFRAPeugeot-BP-Englebert04:44:33  +  00:00:13=36,690 
37 ITAVittorio AdorniITASalvarani04:44:33  +  00:00:13=36,690 
38 ESPJoaquin GaleraESPKas-Kaskol04:44:33  +  00:00:13=36,690 
39 BELGuillaume Van TongerlooBELFlandria-Romeo04:44:33  +  00:00:13=36,690 
40 BELBernard Van De KerckhoveBELSolo-Superia04:44:33  +  00:00:13=36,690 
41 ESPJuan UribezubiaESPKas-Kaskol04:44:33  +  00:00:13=36,690 
42 BELEdgard SorgeloosBELSolo-Superia04:44:33  +  00:00:13=36,690 
43 ESPJosé Pérez FrancésESPFerrys04:44:33  +  00:00:13=36,690 
44 ITAAntonio FranchiITASalvarani04:44:33  +  00:00:13=36,690 
45 ESPFrancisco GabicESPKas-Kaskol04:44:33  +  00:00:13=36,690 
46 ESPMiguel MartinESPKas-Kaskol04:44:33  +  00:00:13=36,690 
47 ITAArnaldo PambiancoITASalvarani04:44:33  +  00:00:13=36,690 
48 ESPJulio JiménezESPKas-Kaskol04:44:33  +  00:00:13=36,690 
49 ESPMiguel PachecoESPFerrys04:44:33  +  00:00:13=36,690 
50 ESPLuis OtañoESPFerrys04:44:33  +  00:00:13=36,690 
51 ESPFernando ManzanequeESPFerrys04:44:33  +  00:00:13=36,690 
52 ESPRogelio HernandezESPFerrys04:44:33  +  00:00:13=36,690 
53 ESPSebastián ElorzaESPKas-Kaskol04:44:33  +  00:00:13=36,690 
54 NEDHuub ZilverbergBELFlandria-Romeo04:44:33  +  00:00:13=36,690 
55 BELCamiel VynckeBELFlandria-Romeo04:44:33  +  00:00:13=36,690 
56 ESPJosé BernardezESPFerrys04:44:33  +  00:00:13=36,690 
57 BELArmand DesmetBELSolo-Superia04:44:33  +  00:00:13=36,690 
58 BELJozef TimmermanBELWiel´s-Groene Leeuw04:44:33  +  00:00:13=36,690 
59 ALGHubert FerrerFRAPelforth-Sauvage-Lejeune-Wolbe..04:44:33  +  00:00:13=36,690 
60 FRAEdouard DelbergheFRAPelforth-Sauvage-Lejeune-Wolbe..04:44:33  +  00:00:13=36,690 
61 FRAHenri AngladeFRAPelforth-Sauvage-Lejeune-Wolbe..04:44:33  +  00:00:13=36,690 
62 FRARaymond MastrottoFRAPeugeot-BP-Englebert04:44:33  +  00:00:13=36,690 
63 FRACamille Le MennFRAPeugeot-BP-Englebert04:44:33  +  00:00:13=36,690 
64 FRAFrancois HamonFRAPeugeot-BP-Englebert04:44:33  +  00:00:13=36,690 
65 FRAHenry DuezFRAPeugeot-BP-Englebert04:44:33  +  00:00:13=36,690 
66 FRAPaul VermeulenFRAMercier-BP-Hutchinson04:44:33  +  00:00:13=36,690 
67 FRARobert PoulotFRAMercier-BP-Hutchinson04:44:33  +  00:00:13=36,690 
68 FRARaymond PoulidorFRAMercier-BP-Hutchinson04:44:33  +  00:00:13=36,690 
69 FRAAndré ZimmermannFRASaint Raphael-Gitane-Campagnol..04:44:33  +  00:00:13=36,690 
70 FRAJean StablinskiFRASaint Raphael-Gitane-Campagnol..04:44:33  +  00:00:13=36,690 
71 FRALouis RostollanFRASaint Raphael-Gitane-Campagnol..04:44:33  +  00:00:13=36,690 
72 NEDAlbertus GeldermansFRASaint Raphael-Gitane-Campagnol..04:44:33  +  00:00:13=36,690 
73 FRAAndré FoucherFRAPelforth-Sauvage-Lejeune-Wolbe..04:44:33  +  00:00:13=36,690 
74 FRAGeorges GroussardFRAPelforth-Sauvage-Lejeune-Wolbe..04:44:33  +  00:00:13=36,690 
75 FRAJean-Claude LefebvreFRAPelforth-Sauvage-Lejeune-Wolbe..04:44:33  +  00:00:13=36,690 
76 GERKarl-Heinz KundeBELWiel´s-Groene Leeuw04:44:33  +  00:00:13=36,690 
77 GERHans JunkermannBELWiel´s-Groene Leeuw04:44:33  +  00:00:13=36,690 
78 BELGilbert Desmet 2BELWiel´s-Groene Leeuw04:44:33  +  00:00:13=36,690 
79 BELGilbert Desmet 1BELWiel´s-Groene Leeuw04:44:33  +  00:00:13=36,690 
80 BELEddy PauwelsFRAMargnat-Paloma-Dunlop04:44:33  +  00:00:13=36,690 
81 FRAJoseph NovalesFRAMargnat-Paloma-Dunlop04:44:33  +  00:00:13=36,690 
82 FRAJean MilesiFRAMargnat-Paloma-Dunlop04:44:33  +  00:00:13=36,690 
83 FRAClaude MattioFRAMargnat-Paloma-Dunlop04:44:33  +  00:00:13=36,690 
84 ESPFederico BahamontesFRAMargnat-Paloma-Dunlop04:44:33  +  00:00:13=36,690 
85 FRAAndré DarrigadeFRAMargnat-Paloma-Dunlop04:44:33  +  00:00:13=36,690 
86 FRAPierre EveraertFRASaint Raphael-Gitane-Campagnol..04:44:33  +  00:00:13=36,690 
87 FRAJacques GestraudFRAMargnat-Paloma-Dunlop04:44:33  +  00:00:13=36,690 
88 ESPEsteban MartinFRAMargnat-Paloma-Dunlop04:44:33  +  00:00:13=36,690 
89 FRAJean GaincheFRAMercier-BP-Hutchinson04:45:06  +  00:00:46=36,619 
90 NEDPiet van EstNLDTelevisier04:45:06  +  00:00:46=36,619 
91 BELFrans BrandsBELFlandria-Romeo04:45:35  +  00:01:15=36,557 
92 FRAJean-Claude LebaubeFRASaint Raphael-Gitane-Campagnol..04:45:42  +  00:01:22=36,542 
93 NEDPiet DamenNLDTelevisier04:46:05  +  00:01:45=36,493 
94 ITAVito TacconeITASalvarani04:46:35  +  00:02:15=36,429 
95 ESPSalvador HonrubiaESPFerrys05:01:25  +  00:17:05=34,636 

Withdrawls: 1
 
Rider
Team
Reason
81  BELJos HoevenaersBELFlandria-RomeoDid not finish

Todays birthdays.

1876  Frédéric Rigaux
1896  Federico Gay
1901  Paul Delbart
1944  Jean-Pierre Ducasse
1948  Marc Lievens
1961  Willem Wijnant
1964  Miguel Indurain
1965  Gianni Faresin
1973  Stefano Garzelli
1982  André Greipel
1984  Alan Marangoni




Visits: